Newport, RI

2:48 PM EST on November 21, 2017 (GMT -0500)
Newport State

Weather History for KUUU - November, 2013

Change the Weather History Date:

Wednesday, November 6, 2013

  Actual Average Record
Temperature  
Mean Temperature 48 °F -  
Max Temperature 57 °F 55 °F 75 °F (1983)
Min Temperature 39 °F 41 °F 29 °F (1980)
Degree Days  
Heating Degree Days 17    
Moisture  
Dew Point 46 °F    
Average Humidity 81    
Maximum Humidity 93    
Minimum Humidity 64    
Precipitation  
Precipitation 0.00 in - - ()
Sea Level Pressure  
Sea Level Pressure 30.31 in    
Wind  
Wind Speed 5 mph (South)    
Max Wind Speed 15 mph    
Max Gust Speed 20 mph    
Visibility 10 miles    
Events      
Averages and records for this station are not official NWS values.
T = Trace of Precipitation, MM = Missing Value Source: NWS Daily Summary

Daily Weather History Graph

Daily Weather History Graph

Search for Another Location

Airport or City:

Trip Planner

Search our weather history database for the weather conditions in past years. The results will help you decide how hot, cold, wet, or windy it might be!

Date:

Astronomy

Nov. 06, 2013 Rise Set
Actual Time 6:23 AM EST 4:33 PM EST
Civil Twilight 5:54 AM EST 5:02 PM EST
Nautical Twilight 5:21 AM EST 5:35 PM EST
Astronomical Twilight 4:48 AM EST 6:08 PM EST
Moon 9:36 AM EST (11/6) 7:33 PM EST (11/6)
Length of Visible Light 11h 08m
Length of Day
10h 10m
Waxing Crescent, 13% of the Moon is Illuminated
Nov 6
Waxing Crescent
Nov 10
First Quarter
Nov 17
Full
Nov 25
Last Quarter
Dec 2
New

Hourly Weather History & Observations

Time (EST) Temp. Dew Point Humidity Pressure Visibility Wind Dir Wind Speed Gust Speed Precip Events Conditions
12:53 AM 42.1 °F 36.0 °F 79% 30.51 in 10.0 mi Calm Calm - N/A   Clear
1:53 AM 39.9 °F 36.0 °F 86% 30.49 in 10.0 mi Calm Calm - N/A   Clear
2:53 AM 39.0 °F 35.1 °F 86% 30.48 in 10.0 mi Calm Calm - N/A   Clear
3:53 AM 39.9 °F 37.0 °F 89% 30.47 in 10.0 mi Calm Calm - N/A   Clear
4:53 AM 42.1 °F 37.9 °F 85% 30.47 in 10.0 mi Calm Calm - N/A   Clear
5:53 AM 39.9 °F 37.0 °F 89% 30.46 in 10.0 mi Calm Calm - N/A   Clear
6:31 AM 39.0 °F 36.0 °F 89% 30.46 in 10.0 mi Calm Calm - N/A   Mostly Cloudy
6:53 AM 41.0 °F 39.0 °F 93% 30.45 in 10.0 mi Calm Calm - N/A   Mostly Cloudy
7:10 AM 43.0 °F 39.9 °F 89% 30.45 in 10.0 mi Calm Calm - N/A   Scattered Clouds
7:53 AM 48.0 °F 43.0 °F 83% 30.45 in 10.0 mi Calm Calm - N/A   Clear
8:53 AM 52.0 °F 44.1 °F 74% 30.43 in 10.0 mi South 5.8 mph - N/A   Clear
9:53 AM 53.1 °F 43.0 °F 69% 30.41 in 10.0 mi South 9.2 mph - N/A   Partly Cloudy
10:16 AM 55.0 °F 44.1 °F 67% 30.40 in 10.0 mi South 9.2 mph - N/A   Mostly Cloudy
10:45 AM 55.0 °F 44.1 °F 67% 30.39 in 10.0 mi South 11.5 mph - N/A   Scattered Clouds
10:53 AM 54.0 °F 44.1 °F 69% 30.38 in 10.0 mi South 12.7 mph - N/A   Scattered Clouds
11:22 AM 55.9 °F 44.1 °F 64% 30.37 in 10.0 mi South 11.5 mph - N/A   Mostly Cloudy
11:29 AM 55.0 °F 44.1 °F 67% 30.36 in 10.0 mi South 9.2 mph - N/A   Scattered Clouds
11:53 AM 57.0 °F 45.0 °F 64% 30.35 in 10.0 mi South 9.2 mph - N/A   Scattered Clouds
12:08 PM 55.0 °F 44.1 °F 67% 30.34 in 10.0 mi SSW 10.4 mph 19.6 mph N/A   Mostly Cloudy
12:53 PM 57.0 °F 46.0 °F 67% 30.31 in 10.0 mi South 15.0 mph - N/A   Mostly Cloudy
1:53 PM 55.0 °F 46.9 °F 74% 30.28 in 10.0 mi South 13.8 mph - N/A   Overcast
2:53 PM 55.9 °F 48.0 °F 75% 30.27 in 10.0 mi SSW 10.4 mph 16.1 mph N/A   Overcast
3:29 PM 55.0 °F 46.9 °F 74% 30.27 in 10.0 mi SSW 12.7 mph - N/A   Mostly Cloudy
3:53 PM 55.0 °F 46.9 °F 74% 30.26 in 10.0 mi South 11.5 mph 17.3 mph N/A   Mostly Cloudy
4:04 PM 55.0 °F 48.0 °F 77% 30.26 in 10.0 mi South 6.9 mph - N/A   Scattered Clouds
4:18 PM 55.0 °F 48.0 °F 77% 30.26 in 10.0 mi South 6.9 mph - N/A   Mostly Cloudy
4:53 PM 55.0 °F 48.9 °F 80% 30.25 in 10.0 mi South 8.1 mph - N/A   Overcast
5:31 PM 55.0 °F 51.1 °F 86% 30.24 in 10.0 mi South 5.8 mph - N/A   Overcast
5:53 PM 55.0 °F 51.1 °F 86% 30.23 in 10.0 mi South 8.1 mph - N/A   Overcast
6:53 PM 55.0 °F 52.0 °F 89% 30.21 in 10.0 mi South 5.8 mph - N/A   Scattered Clouds
7:53 PM 55.0 °F 53.1 °F 93% 30.19 in 10.0 mi South 6.9 mph - N/A   Clear
8:25 PM 55.0 °F 53.1 °F 93% 30.17 in 10.0 mi South 8.1 mph - N/A   Mostly Cloudy
8:32 PM 55.0 °F 53.1 °F 93% 30.17 in 10.0 mi South 10.4 mph - N/A   Partly Cloudy
8:53 PM 55.0 °F 53.1 °F 93% 30.16 in 10.0 mi South 8.1 mph - N/A   Scattered Clouds
9:53 PM 55.9 °F 52.0 °F 87% 30.14 in 10.0 mi SSW 9.2 mph - N/A   Clear
10:50 PM 55.4 °F 51.8 °F 88% 30.12 in 10.0 mi SSW 6.9 mph - N/A   Mostly Cloudy
10:53 PM 55.9 °F 52.0 °F 87% 30.12 in 10.0 mi SSW 8.1 mph - N/A   Mostly Cloudy
11:19 PM 55.9 °F 53.1 °F 90% 30.11 in 10.0 mi SSW 8.1 mph - N/A   Scattered Clouds
11:53 PM 55.9 °F 53.1 °F 90% 30.09 in 10.0 mi SSW 6.9 mph - N/A   Scattered Clouds